{"data":{"norad_id":40875,"epoch":"2026-05-25T03:42:17.485056Z","epoch_age_seconds":54903,"freshness":"FRESH","line1":"1 40875U 15039B   26145.15436904 -.00000068  00000+0  00000+0 0  9995","line2":"2 40875   0.0655 355.3608 0003917  67.1327 227.8335  1.00271640 39427","mean_motion":1.0027164,"eccentricity":0.0003917,"inclination_deg":0.0655,"raan_deg":355.3608,"arg_perigee_deg":67.1327,"mean_anomaly_deg":227.8335,"bstar":0,"rev_number":3942,"period_min":1436.0989807287,"perigee_km":35770.119668572,"apogee_km":35803.151551435,"semimajor_km":42164.772610003,"source":"CELESTRAK","updated_at":"2026-05-25T13:38:13.991166Z"}}